Location: Unspecified
(40.7945°N, 111.1337°W)
Time: 17:13:53
(UTC-06:00)

Cosmos 1674 - Pass Details

Date: 23 March 2019
Orbit: 497 x 519 km, 82.5° (Epoch: 20 April)

Event Time Altitude Azimuth Distance (km) Brightness Sun altitude
Rises 21:48:40 0° 345° (NNW) 2,605 6.8 -24.4°
Reaches altitude 10° 21:50:51 10° 340° (NNW) 1,720 5.9 -24.8°
Maximum altitude 21:54:27 45° 267° (W) 693 3.6 -25.4°
Enters shadow 21:54:32 45° 262° (W) 694 3.6 -25.4°
